Orbital Elements at Epoch 2459200.5 (2020-Dec-17.0) TDB
Reference: JPL 22 (heliocentric ecliptic J2000)
Element | Value | Uncertainty (1-sigma) | Units |
e | .1632620027581096 | 4.0737e-08 | |
a | 2.291117966689994 | 9.9227e-09 | au |
q | 1.917065458893098 | 9.5003e-08 | au |
i | 8.445691883916755 | 5.4983e-06 | deg |
node | 47.67473224480634 | 3.1236e-05 | deg |
peri | 269.2713727355236 | 3.597e-05 | deg |
M | 201.6728637144495 | 1.6892e-05 | deg |
tp | 2459757.586275544477 (2022-Jun-27.08627554) | 6.0369e-05 | TDB |
period | 1266.687845817589 3.47 | 8.2289e-06 2.253e-08 | d yr |
n | .2842057742865894 | 1.8463e-09 | deg/d |
Q | 2.66517047448689 | 1.1543e-08 | au |
|
| | Orbit Determination Parameters
Additional Information
|